| time (UTC) | temp F | wind direction | speed MPH | gust MPH | rain 1hr in | rain 24hr in | rain mn in | humidity % | barometer mb |
| 20260508134612 | 45 | 252 | 5.0 | 10.0 | 0.00 | 0.00 | 0.00 | 71 | 1009.3 |
| 20260508133057 | 44 | 262 | 3.0 | 6.0 | 0.00 | 0.00 | 0.00 | 74 | 1009.7 |
| 20260508131548 | 43 | 269 | 4.0 | 7.0 | 0.00 | 0.00 | 0.00 | 75 | 1009.7 |
| 20260508130041 | 42 | 254 | 3.0 | 6.0 | 0.00 | 0.00 | 0.00 | 77 | 1009.7 |
| 20260508124537 | 42 | 261 | 3.0 | 4.0 | 0.00 | 0.00 | 0.00 | 75 | 1009.8 |
| 20260508123045 | 40 | 236 | 3.0 | 5.0 | 0.00 | 0.00 | 0.00 | 78 | 1009.9 |
| 20260508121532 | 39 | 238 | 2.0 | 5.0 | 0.00 | 0.00 | 0.00 | 81 | 1009.9 |
| 20260508120033 | 38 | 238 | 0.0 | 0.0 | 0.00 | 0.00 | 0.00 | 81 | 1009.9 |
| 20260508114526 | 38 | 243 | 2.0 | 5.0 | 0.00 | 0.00 | 0.00 | 83 | 1010.0 |
| 20260508113026 | 38 | 240 | 2.0 | 4.0 | 0.00 | 0.00 | 0.00 | 84 | 1009.8 |
| 20260508111533 | 38 | 275 | 3.0 | 5.0 | 0.00 | 0.00 | 0.00 | 84 | 1009.9 |
| 20260508110026 | 38 | 255 | 4.0 | 5.0 | 0.00 | 0.00 | 0.00 | 85 | 1009.9 |
| 20260508104523 | 38 | 265 | 3.0 | 5.0 | 0.00 | 0.00 | 0.00 | 86 | 1009.7 |
| 20260508103027 | 37 | 266 | 2.0 | 4.0 | 0.00 | 0.00 | 0.00 | 85 | 1009.7 |
| 20260508101522 | 37 | 264 | 3.0 | 4.0 | 0.00 | 0.00 | 0.00 | 86 | 1009.8 |
| 20260508100023 | 37 | 274 | 3.0 | 5.0 | 0.00 | 0.00 | 0.00 | 87 | 1009.8 |
| 20260508094520 | 37 | 122 | 0.0 | 4.0 | 0.00 | 0.00 | 0.00 | 82 | 1009.7 |
| 20260508093019 | 38 | 274 | 4.0 | 5.0 | 0.00 | 0.00 | 0.00 | 87 | 1009.9 |
| 20260508091515 | 37 | 264 | 4.0 | 6.0 | 0.00 | 0.00 | 0.00 | 85 | 1009.8 |
| 20260508090021 | 36 | 269 | 2.0 | 4.0 | 0.00 | 0.00 | 0.00 | 87 | 1010.1 |
| 20260508084509 | 33 | 272 | 1.0 | 4.0 | 0.00 | 0.00 | 0.00 | 90 | 1010.1 |
| 20260508083010 | 33 | 128 | 0.0 | 1.0 | 0.00 | 0.00 | 0.00 | 82 | 1010.1 |
| 20260508081507 | 35 | 245 | 0.0 | 6.0 | 0.00 | 0.00 | 0.00 | 83 | 1010.2 |
| 20260508080007 | 34 | 236 | 5.0 | 6.0 | 0.00 | 0.00 | 0.00 | 89 | 1010.3 |
| 20260508074502 | 30 | 96 | 0.0 | 0.0 | 0.00 | 0.00 | 0.00 | 90 | 1010.4 |
| 20260508073000 | 30 | 96 | 0.0 | 0.0 | 0.00 | 0.00 | 0.00 | 91 | 1010.4 |
| 20260508071606 | 31 | 96 | 0.0 | 0.0 | 0.00 | 0.00 | 0.00 | 90 | 1010.4 |
| 20260508070056 | 31 | 94 | 0.0 | 0.0 | 0.00 | 0.00 | 0.00 | 90 | 1010.7 |
| 20260508064602 | 31 | 94 | 0.0 | 0.0 | 0.00 | 0.00 | 0.00 | 89 | 1010.9 |
| 20260508063107 | 32 | 106 | 0.0 | 0.0 | 0.00 | 0.00 | 0.00 | 90 | 1011.0 |
| 20260508061604 | 31 | 94 | 0.0 | 0.0 | 0.00 | 0.00 | 0.00 | 89 | 1011.2 |
| 20260508054546 | 33 | 94 | 0.0 | 0.0 | 0.00 | 0.00 | 0.00 | 88 | 1011.1 |
| 20260508053045 | 34 | 94 | 0.0 | 0.0 | 0.00 | 0.00 | 0.00 | 89 | 1011.2 |
| 20260508051602 | 33 | 94 | 0.0 | 0.0 | 0.00 | 0.00 | 0.00 | 89 | 1011.3 |
| 20260508050041 | 33 | 94 | 0.0 | 0.0 | 0.00 | 0.00 | 0.00 | 87 | 1011.4 |
| 20260508044543 | 34 | 94 | 0.0 | 0.0 | 0.00 | 0.00 | 0.00 | 85 | 1011.3 |
| 20260508043035 | 36 | 94 | 0.0 | 0.0 | 0.00 | 0.00 | 0.00 | 85 | 1011.3 |
| 20260508041534 | 35 | 258 | 0.0 | 0.0 | 0.00 | 0.00 | 0.00 | 86 | 1011.3 |
| 20260508040037 | 35 | 258 | 0.0 | 0.0 | 0.00 | 0.00 | 0.00 | 85 | 1011.3 |
| 20260508034541 | 36 | 258 | 0.0 | 0.0 | 0.00 | 0.00 | 0.00 | 83 | 1011.2 |
| 20260508033030 | 37 | 258 | 0.0 | 0.0 | 0.00 | 0.00 | 0.00 | 80 | 1011.1 |
| 20260508031535 | 39 | 258 | 0.0 | 0.0 | 0.00 | 0.00 | 0.00 | 75 | 1011.2 |
| 20260508030029 | 41 | 258 | 0.0 | 0.0 | 0.00 | 0.00 | 0.00 | 76 | 1011.1 |
| 20260508024550 | 40 | 226 | 0.0 | 0.0 | 0.00 | 0.00 | 0.00 | 73 | 1011.2 |
| 20260508023028 | 42 | 198 | 0.0 | 5.0 | 0.00 | 0.00 | 0.00 | 70 | 1011.2 |
| 20260508021529 | 42 | 264 | 3.0 | 5.0 | 0.00 | 0.00 | 0.00 | 64 | 1011.3 |
| 20260508020027 | 42 | 262 | 1.0 | 4.0 | 0.00 | 0.00 | 0.00 | 64 | 1011.4 |
| 20260508014526 | 43 | 266 | 1.0 | 4.0 | 0.00 | 0.00 | 0.00 | 65 | 1011.4 |
| 20260508013029 | 43 | 254 | 1.0 | 4.0 | 0.00 | 0.00 | 0.00 | 63 | 1011.3 |
| 20260508011530 | 43 | 255 | 1.0 | 6.0 | 0.00 | 0.00 | 0.00 | 63 | 1011.2 |
| 20260508010025 | 43 | 266 | 1.0 | 8.0 | 0.00 | 0.00 | 0.00 | 61 | 1011.1 |
| 20260508004538 | 44 | 266 | 3.0 | 6.0 | 0.00 | 0.00 | 0.00 | 60 | 1011.1 |
| 20260508003024 | 44 | 276 | 1.0 | 9.0 | 0.00 | 0.00 | 0.00 | 58 | 1010.9 |
| 20260508001532 | 45 | 258 | 4.0 | 8.0 | 0.00 | 0.00 | 0.00 | 59 | 1010.8 |
| 20260508000022 | 45 | 270 | 5.0 | 12.0 | 0.00 | 0.00 | 0.00 | 61 | 1010.8 |
| 20260507234522 | 45 | 316 | 5.0 | 11.0 | 0.00 | 0.00 | 0.00 | 61 | 1010.8 |
| 20260507233123 | 45 | 268 | 4.0 | 10.0 | 0.00 | 0.00 | 0.00 | 62 | 1010.7 |
| 20260507231522 | 45 | 273 | 0.0 | 11.0 | 0.00 | 0.00 | 0.00 | 62 | 1010.8 |
| 20260507230019 | 45 | 276 | 5.0 | 11.0 | 0.00 | 0.00 | 0.00 | 57 | 1010.9 |
| 20260507224519 | 45 | 267 | 6.0 | 10.0 | 0.00 | 0.00 | 0.00 | 56 | 1010.9 |
| 20260507223017 | 45 | 269 | 4.0 | 13.0 | 0.00 | 0.00 | 0.00 | 58 | 1010.9 |
| 20260507221517 | 45 | 285 | 7.0 | 13.0 | 0.00 | 0.00 | 0.00 | 63 | 1011.0 |
| 20260507220016 | 45 | 267 | 9.0 | 16.0 | 0.00 | 0.00 | 0.00 | 59 | 1011.0 |
| 20260507214516 | 46 | 273 | 11.0 | 16.0 | 0.00 | 0.00 | 0.00 | 57 | 1011.0 |
| 20260507213022 | 46 | 292 | 9.0 | 16.0 | 0.00 | 0.00 | 0.00 | 56 | 1010.9 |
| 20260507211515 | 47 | 271 | 5.0 | 17.0 | 0.00 | 0.00 | 0.00 | 52 | 1010.9 |
| 20260507210014 | 46 | 257 | 11.0 | 18.0 | 0.00 | 0.00 | 0.00 | 50 | 1010.8 |
| 20260507204513 | 47 | 271 | 14.0 | 20.0 | 0.00 | 0.00 | 0.00 | 52 | 1010.8 |
| 20260507203016 | 47 | 263 | 15.0 | 18.0 | 0.00 | 0.00 | 0.00 | 54 | 1010.9 |
| 20260507201509 | 47 | 271 | 8.0 | 13.0 | 0.00 | 0.00 | 0.00 | 55 | 1010.9 |
| 20260507200008 | 46 | 247 | 5.0 | 13.0 | 0.00 | 0.00 | 0.00 | 58 | 1010.9 |
| 20260507194510 | 46 | 265 | 8.0 | 13.0 | 0.00 | 0.00 | 0.00 | 59 | 1011.0 |
| 20260507193002 | 46 | 278 | 9.0 | 15.0 | 0.00 | 0.00 | 0.00 | 58 | 1011.2 |
| 20260507191600 | 45 | 268 | 11.0 | 15.0 | 0.00 | 0.00 | 0.00 | 59 | 1011.3 |
| 20260507184557 | 45 | 272 | 7.0 | 16.0 | 0.00 | 0.00 | 0.00 | 59 | 1011.5 |
| 20260507183057 | 45 | 284 | 11.0 | 16.0 | 0.00 | 0.00 | 0.00 | 59 | 1011.5 |
| 20260507181555 | 46 | 260 | 9.0 | 15.0 | 0.00 | 0.00 | 0.00 | 60 | 1011.7 |
| 20260507180054 | 45 | 262 | 11.0 | 16.0 | 0.00 | 0.00 | 0.00 | 58 | 1011.8 |
| 20260507174551 | 45 | 266 | 11.0 | 15.0 | 0.00 | 0.00 | 0.00 | 62 | 1011.9 |
| 20260507173123 | 45 | 278 | 11.0 | 15.0 | 0.00 | 0.00 | 0.00 | 61 | 1012.1 |
| 20260507171545 | 44 | 272 | 10.0 | 14.0 | 0.00 | 0.00 | 0.00 | 63 | 1012.2 |
| 20260507170047 | 44 | 260 | 9.0 | 15.0 | 0.00 | 0.00 | 0.00 | 64 | 1012.5 |
| 20260507164542 | 44 | 269 | 9.0 | 14.0 | 0.00 | 0.00 | 0.00 | 64 | 1012.6 |
| 20260507163041 | 44 | 271 | 10.0 | 16.0 | 0.00 | 0.00 | 0.00 | 64 | 1012.6 |
| 20260507161545 | 44 | 274 | 8.0 | 12.0 | 0.00 | 0.00 | 0.00 | 65 | 1012.7 |
| 20260507160038 | 44 | 264 | 8.0 | 13.0 | 0.00 | 0.00 | 0.00 | 66 | 1012.8 |
| 20260507154533 | 43 | 262 | 7.0 | 10.0 | 0.00 | 0.00 | 0.00 | 72 | 1012.9 |
| 20260507153033 | 43 | 273 | 7.0 | 11.0 | 0.00 | 0.00 | 0.00 | 72 | 1012.9 |
| 20260507151532 | 43 | 272 | 7.0 | 10.0 | 0.00 | 0.00 | 0.00 | 72 | 1012.9 |
| 20260507150037 | 42 | 261 | 7.0 | 10.0 | 0.00 | 0.00 | 0.00 | 71 | 1013.1 |
| 20260507144526 | 42 | 266 | 5.0 | 8.0 | 0.00 | 0.00 | 0.00 | 74 | 1013.1 |
| 20260507143025 | 41 | 276 | 3.0 | 7.0 | 0.00 | 0.00 | 0.00 | 76 | 1013.0 |
| 20260507141524 | 41 | 270 | 4.0 | 8.0 | 0.00 | 0.00 | 0.00 | 77 | 1013.1 |
| 20260507140020 | 40 | 263 | 4.0 | 7.0 | 0.00 | 0.00 | 0.00 | 78 | 1013.1 |